Location: Splawn
(30.9202°N, 96.9858°W)
Time: 04:17:17
(UTC+00:00)

Transit 2A Rocket - Pass Details

Date: 28 February 2020
Orbit: 588 x 914 km, 66.7° (Epoch: 04 April)

Event Time Altitude Azimuth Distance (km) Brightness Sun altitude
Rises 12:28:04 0° 339° (NNW) 3,226 8.0 -6.8°
Reaches altitude 10° 12:30:24 10° 342° (NNW) 2,347 7.3 -6.3°
Maximum altitude 12:35:48 64° 64° (ENE) 922 5.7 -5.1°
Drops below altitude 10° 12:41:37 10° 145° (SE) 2,527 8.4 -3.9°
Sets 12:44:13 0° 148° (SSE) 3,492 9.0 -3.3°
